DW4063 Weather Reports


time (UTC)temp
F
wind
direction
speed
knots
gust
knots
rain 1hr
in
rain 24hr
in
rain mn
in
humidity
%
barometer
mb
20260504050024 53 203 0.0 0.9 0.00 0.07 0.00 76 1006.6
20260504044523 53 203 0.0 0.9 0.00 0.07 0.07 75 1006.6
20260504043044 53 203 0.0 1.7 0.00 0.07 0.07 74 1006.6
20260504041534 54 215 0.0 1.7 0.00 0.07 0.07 74 1006.5
20260504040028 54 221 0.0 1.7 0.00 0.07 0.07 74 1006.5
20260504034526 54 192 0.0 1.7 0.00 0.07 0.07 74 1006.6
20260504033023 55 191 0.0 0.9 0.00 0.07 0.07 72 1006.8
20260504031521 55 191 0.0 0.0 0.00 0.07 0.07 69 1007.0
20260504030019 56 191 0.0 0.0 0.00 0.07 0.07 67 1007.0
20260504024515 57 191 0.0 2.6 0.00 0.07 0.07 66 1006.9
20260504023013 58 193 0.0 1.7 0.00 0.07 0.07 64 1007.0
20260504021511 59 193 0.0 1.7 0.00 0.07 0.07 62 1006.8
20260504020034 60 169 0.0 0.9 0.00 0.07 0.07 60 1006.7
20260504014522 61 213 0.0 1.7 0.00 0.07 0.07 58 1006.6
20260504013025 62 236 0.9 4.3 0.00 0.07 0.07 57 1006.5
20260504011515 63 205 0.9 2.6 0.00 0.07 0.07 55 1006.4
20260504010012 64 194 0.9 2.6 0.00 0.07 0.07 53 1006.3
20260504004522 65 221 0.9 2.6 0.00 0.07 0.07 50 1006.3
20260504003025 66 207 1.7 6.1 0.00 0.07 0.07 47 1006.4
20260504001532 67 215 1.7 6.1 0.00 0.07 0.07 47 1006.4
20260504000023 67 223 1.7 7.0 0.00 0.07 0.07 45 1006.4
20260503234520 68 200 1.7 8.7 0.00 0.07 0.07 45 1006.4
20260503233018 68 248 2.6 9.6 0.00 0.07 0.07 43 1006.4
20260503231528 68 202 1.7 9.6 0.00 0.07 0.07 43 1006.4
20260503230030 68 234 1.7 7.8 0.00 0.07 0.07 43 1006.5
20260503224525 68 254 1.7 7.8 0.00 0.07 0.07 42 1006.6
20260503223024 69 174 1.7 7.0 0.00 0.07 0.07 42 1006.7
20260503221519 68 284 2.6 10.4 0.00 0.07 0.07 42 1006.7
20260503220029 68 149 3.5 18.2 0.00 0.07 0.07 41 1007.0
20260503214541 67 217 4.3 8.7 0.00 0.07 0.07 42 1007.0
20260503213033 66 206 1.7 8.7 0.00 0.07 0.07 45 1007.2
20260503211526 67 261 1.7 7.8 0.00 0.07 0.07 45 1007.6
20260503210025 65 219 4.3 13.9 0.00 0.07 0.07 43 1007.8
20260503204529 65 215 3.5 9.6 0.00 0.07 0.07 42 1008.2
20260503203025 64 161 4.3 12.2 0.00 0.07 0.07 42 1008.7
20260503201532 64 209 6.1 14.8 0.00 0.07 0.07 41 1008.9
20260503200030 63 218 5.2 15.6 0.00 0.07 0.07 44 1008.9
20260503194527 64 217 5.2 13.0 0.00 0.07 0.07 43 1009.0
20260503193028 63 188 6.1 13.0 0.00 0.07 0.07 50 1009.1
20260503191526 62 200 6.1 15.6 0.00 0.07 0.07 51 1009.4
20260503190037 60 203 1.7 9.6 0.00 0.07 0.07 61 1009.5
20260503184530 59 180 2.6 8.7 0.00 0.07 0.07 63 1010.0
20260503183034 57 200 2.6 7.8 0.00 0.07 0.07 69 1010.2
20260503181531 55 59 1.7 7.0 0.00 0.07 0.07 76 1010.5
20260503180024 53 360 1.7 7.8 0.01 0.07 0.07 76 1011.1
20260503174506 51 93 1.7 6.1 0.02 0.07 0.07 81 1011.3
20260503173007 50 146 0.9 7.8 0.03 0.07 0.07 83 1012.1
20260503171505 49 198 1.7 5.2 0.03 0.07 0.07 85 1012.5
20260503081528 43 209 0.0 2.6 0.00 0.00 0.00 66 1015.4
20260503071520 40 237 0.0 0.0 0.00 0.00 0.00 77 1015.5